GW6448 Weather Reports


Display with metric or nautical units.
time (UTC)temp
F
wind
direction
speed
MPH
gust
MPH
rain 1hr
in
rain 24hr
in
rain mn
in
humidity
%
barometer
mb
20260504151011 67 229 6.0 13.0 0.00 0.00 0.00 38 1015.0
20260504150514 67 260 7.0 13.0 0.00 0.00 0.00 39 1015.0
20260504141006 64 298 2.0 5.0 0.00 0.00 0.00 45 1015.1
20260504140504 64 267 3.0 6.0 0.00 0.00 0.00 44 1015.2
20260504130503 57 281 1.0 7.0 0.00 0.00 0.00 54 1015.5
20260504110507 47 251 0.0 2.0 0.00 0.00 0.00 69 1016.1
20260504100509 47 248 0.0 2.0 0.00 0.00 0.00 67 1015.9
20260504081516 47 272 0.0 2.0 0.00 0.00 0.00 69 1016.2
20260504081011 47 272 0.0 2.0 0.00 0.00 0.00 68 1016.2
20260504080511 47 272 0.0 2.0 0.00 0.00 0.00 68 1016.1
20260504050504 48 273 1.0 4.0 0.00 0.00 0.00 62 1016.2
20260504050007 48 244 1.0 3.0 0.00 0.00 0.00 65 1016.2
20260504045506 47 250 1.0 2.0 0.00 0.00 0.00 64 1016.2
20260504045009 47 253 0.0 2.0 0.00 0.00 0.00 64 1016.1
20260504044523 47 247 0.0 2.0 0.00 0.00 0.00 66 1016.1
20260504044006 47 247 0.0 2.0 0.00 0.00 0.00 67 1016.1
20260504043506 47 247 0.0 2.0 0.00 0.00 0.00 66 1016.0
20260504043008 47 248 0.0 2.0 0.00 0.00 0.00 66 1016.0
20260504042503 47 248 0.0 2.0 0.00 0.00 0.00 67 1016.0
20260504042009 47 246 0.0 2.0 0.00 0.00 0.00 67 1016.1
20260504041508 47 246 0.0 2.0 0.00 0.00 0.00 66 1016.0
20260504041006 48 246 0.0 2.0 0.00 0.00 0.00 65 1016.0
20260504040505 47 239 0.0 2.0 0.00 0.00 0.00 64 1015.9
20260504040012 47 238 0.0 2.0 0.00 0.00 0.00 63 1016.0
20260504035513 47 231 0.0 2.0 0.00 0.00 0.00 62 1016.0
20260504035007 47 231 0.0 2.0 0.00 0.00 0.00 63 1016.0
20260504034509 47 225 0.0 2.0 0.00 0.00 0.00 64 1016.1
20260504034006 47 223 0.0 2.0 0.00 0.00 0.00 63 1016.1
20260504033508 47 223 0.0 2.0 0.00 0.00 0.00 63 1016.1
20260504033012 46 244 0.0 2.0 0.00 0.00 0.00 64 1016.0
20260504032506 46 244 0.0 1.0 0.00 0.00 0.00 63 1016.0
20260504032006 46 244 0.0 2.0 0.00 0.00 0.00 64 1016.0
20260504031516 46 244 0.0 2.0 0.00 0.00 0.00 65 1016.0
20260504031007 45 244 0.0 1.0 0.00 0.00 0.00 64 1016.1
20260504030504 45 252 0.0 1.0 0.00 0.00 0.00 65 1016.2
20260504030014 45 252 0.0 1.0 0.00 0.00 0.00 63 1016.2
20260504025506 45 242 0.0 2.0 0.00 0.00 0.00 63 1016.2
20260504025003 45 242 1.0 2.0 0.00 0.00 0.00 64 1016.2
20260504024519 45 242 1.0 1.0 0.00 0.00 0.00 63 1016.1
20260504024011 46 243 0.0 2.0 0.00 0.00 0.00 63 1016.1
20260504023507 46 243 1.0 2.0 0.00 0.00 0.00 62 1016.1
20260504023019 46 243 0.0 2.0 0.00 0.00 0.00 61 1016.0
20260504022508 46 243 0.0 1.0 0.00 0.00 0.00 61 1016.1
20260504022004 47 234 0.0 1.0 0.00 0.00 0.00 61 1016.1
20260504021525 47 234 0.0 2.0 0.00 0.00 0.00 60 1016.0
20260504021006 47 234 1.0 2.0 0.00 0.00 0.00 59 1016.1
20260504020503 47 234 0.0 2.0 0.00 0.00 0.00 59 1016.1
20260504020020 48 234 1.0 2.0 0.00 0.00 0.00 58 1016.0
20260504015508 48 233 0.0 2.0 0.00 0.00 0.00 58 1015.9
20260504015003 48 243 1.0 2.0 0.00 0.00 0.00 58 1015.8
20260504014520 48 245 0.0 2.0 0.00 0.00 0.00 59 1015.7
20260504014008 48 245 0.0 2.0 0.00 0.00 0.00 57 1015.8
20260504013503 48 246 0.0 2.0 0.00 0.00 0.00 57 1015.7
20260504013032 48 252 0.0 1.0 0.00 0.00 0.00 58 1015.7
20260504012509 48 252 1.0 1.0 0.00 0.00 0.00 59 1015.8
20260504012004 49 241 1.0 1.0 0.00 0.00 0.00 58 1015.7
20260504011520 49 240 1.0 2.0 0.00 0.00 0.00 57 1015.6
20260504011009 49 227 0.0 2.0 0.00 0.00 0.00 57 1015.5
20260504010504 49 225 1.0 2.0 0.00 0.00 0.00 58 1015.5
20260504010021 49 235 1.0 2.0 0.00 0.00 0.00 57 1015.5
20260504005507 49 254 1.0 2.0 0.00 0.00 0.00 57 1015.5
20260504005007 50 252 1.0 2.0 0.00 0.00 0.00 58 1015.5
20260504004524 50 254 1.0 1.0 0.00 0.00 0.00 59 1015.4
20260504004008 50 254 1.0 1.0 0.00 0.00 0.00 59 1015.4
20260504003508 51 253 1.0 2.0 0.00 0.00 0.00 57 1015.5
20260504003023 51 260 1.0 2.0 0.00 0.00 0.00 56 1015.4
20260504002508 52 264 1.0 2.0 0.00 0.00 0.00 55 1015.4
20260504002008 52 264 1.0 2.0 0.00 0.00 0.00 53 1015.3
20260504001520 53 262 1.0 2.0 0.00 0.00 0.00 50 1015.4
20260504001005 54 257 1.0 2.0 0.00 0.00 0.00 49 1015.3
20260504000508 55 247 0.0 1.0 0.00 0.00 0.00 46 1015.2
20260504000023 55 247 0.0 1.0 0.00 0.00 0.00 46 1015.1
20260503235504 56 247 0.0 1.0 0.00 0.00 0.00 46 1015.2
20260503235007 57 247 1.0 1.0 0.00 0.00 0.00 43 1015.1
20260503234522 58 247 0.0 1.0 0.00 0.00 0.00 42 1015.0
20260503234006 59 247 0.0 1.0 0.00 0.00 0.00 40 1015.0
20260503233507 60 247 1.0 2.0 0.00 0.00 0.00 38 1015.0
20260503233022 61 247 1.0 2.0 0.00 0.00 0.00 36 1015.0
20260503232503 61 247 0.0 2.0 0.00 0.00 0.00 34 1014.8
20260503232013 62 247 1.0 2.0 0.00 0.00 0.00 33 1014.9
20260503231522 63 235 1.0 3.0 0.00 0.00 0.00 30 1014.9
20260503231005 63 235 0.0 3.0 0.00 0.00 0.00 27 1014.8
20260503230509 63 235 1.0 3.0 0.00 0.00 0.00 27 1014.8
20260503230025 63 268 0.0 6.0 0.00 0.00 0.00 28 1014.7
20260503225505 63 277 2.0 6.0 0.00 0.00 0.00 26 1014.7
20260503225009 63 238 2.0 6.0 0.00 0.00 0.00 27 1014.8
20260503224524 63 266 1.0 6.0 0.00 0.00 0.00 27 1014.9
20260503224009 64 268 3.0 7.0 0.00 0.00 0.00 27 1014.9
20260503223511 64 284 2.0 7.0 0.00 0.00 0.00 26 1015.0
20260503223026 64 233 1.0 10.0 0.00 0.00 0.00 26 1015.0
20260503222508 64 290 2.0 10.0 0.00 0.00 0.00 27 1015.0
20260503222010 64 257 4.0 9.0 0.00 0.00 0.00 26 1015.0
20260503221532 64 294 3.0 8.0 0.00 0.00 0.00 26 1015.1
20260503221009 64 274 3.0 8.0 0.00 0.00 0.00 27 1015.1
20260503220510 64 327 2.0 8.0 0.00 0.00 0.00 26 1015.1
20260503220024 64 9 3.0 8.0 0.00 0.00 0.00 26 1015.2
20260503215506 64 283 2.0 8.0 0.00 0.00 0.00 26 1015.2
20260503215008 64 352 2.0 9.0 0.00 0.00 0.00 26 1015.1
20260503214525 64 257 5.0 9.0 0.00 0.00 0.00 25 1015.2
20260503214015 65 345 1.0 8.0 0.00 0.00 0.00 28 1015.1
20260503213509 64 136 3.0 8.0 0.00 0.00 0.00 26 1015.1
20260503213027 65 5 2.0 5.0 0.00 0.00 0.00 26 1015.2
20260503212507 64 317 1.0 5.0 0.00 0.00 0.00 27 1015.1
20260503212010 63 59 0.0 12.0 0.00 0.00 0.00 26 1015.2
20260503211520 63 340 3.0 14.0 0.00 0.00 0.00 28 1015.2
20260503211004 63 260 7.0 12.0 0.00 0.00 0.00 28 1015.1
20260503210505 63 360 4.0 10.0 0.00 0.00 0.00 27 1015.1
20260503210021 63 281 3.0 11.0 0.00 0.00 0.00 28 1015.2
20260503205502 63 336 6.0 10.0 0.00 0.00 0.00 29 1015.3
20260503205010 63 97 1.0 8.0 0.00 0.00 0.00 28 1015.3
20260503204524 63 204 2.0 12.0 0.00 0.00 0.00 28 1015.3
20260503204002 63 261 4.0 12.0 0.00 0.00 0.00 29 1015.3
20260503203506 63 319 8.0 13.0 0.00 0.00 0.00 28 1015.4
20260503203020 63 252 4.0 13.0 0.00 0.00 0.00 28 1015.5
20260503202503 62 220 3.0 10.0 0.00 0.00 0.00 29 1015.5
20260503202008 62 245 3.0 15.0 0.00 0.00 0.00 28 1015.6
20260503201529 62 342 7.0 17.0 0.00 0.00 0.00 29 1015.6
20260503201005 62 211 6.0 17.0 0.00 0.00 0.00 28 1015.6
20260503200507 63 265 6.0 17.0 0.00 0.00 0.00 28 1015.7
20260503200030 62 271 2.0 9.0 0.00 0.00 0.00 30 1015.8
20260503195503 62 277 5.0 11.0 0.00 0.00 0.00 27 1015.9
20260503195006 62 303 6.0 11.0 0.00 0.00 0.00 29 1016.0
20260503194529 62 310 3.0 14.0 0.00 0.00 0.00 30 1016.1
20260503194003 62 334 9.0 13.0 0.00 0.00 0.00 30 1016.1
20260503193506 62 25 4.0 11.0 0.00 0.00 0.00 29 1016.2
20260503193022 62 15 4.0 10.0 0.00 0.00 0.00 29 1016.4
20260503192503 62 323 2.0 12.0 0.00 0.00 0.00 30 1016.5
20260503192011 62 288 6.0 12.0 0.00 0.00 0.00 29 1016.5
20260503191504 61 336 6.0 10.0 0.00 0.00 0.00 29 1016.5
20260503191004 61 76 4.0 10.0 0.00 0.00 0.00 29 1016.6
20260503190507 61 232 2.0 11.0 0.00 0.00 0.00 33 1016.7
20260503190007 60 210 4.0 13.0 0.00 0.00 0.00 31 1016.7
20260503185503 60 271 5.0 27.0 0.00 0.00 0.00 30 1016.7
20260503185006 60 194 3.0 27.0 0.00 0.00 0.00 31 1016.8
20260503184507 60 288 5.0 10.0 0.00 0.00 0.00 30 1016.8
20260503184003 60 250 3.0 10.0 0.00 0.00 0.00 30 1016.8
20260503183515 60 254 4.0 11.0 0.00 0.00 0.00 29 1017.1
20260503183017 60 330 5.0 16.0 0.00 0.00 0.00 31 1017.1
20260503182507 59 332 6.0 16.0 0.00 0.00 0.00 30 1017.1
20260503182008 60 5 9.0 14.0 0.00 0.00 0.00 31 1017.2
20260503181523 59 315 2.0 10.0 0.00 0.00 0.00 33 1017.1
20260503181004 59 277 3.0 13.0 0.00 0.00 0.00 31 1017.1
20260503180507 59 319 5.0 13.0 0.00 0.00 0.00 31 1017.2
20260503180008 58 281 4.0 12.0 0.00 0.00 0.00 31 1017.2
20260503175507 58 32 7.0 16.0 0.00 0.00 0.00 33 1017.4
20260503175010 57 271 9.0 15.0 0.00 0.00 0.00 33 1017.3
20260503174507 57 234 5.0 9.0 0.00 0.00 0.00 33 1017.3
20260503174006 57 33 5.0 21.0 0.00 0.00 0.00 31 1017.3
20260503173508 57 48 7.0 21.0 0.00 0.00 0.00 33 1017.6
20260503173036 56 30 4.0 10.0 0.00 0.00 0.00 35 1017.6
20260503172511 56 204 4.0 17.0 0.00 0.00 0.00 34 1017.6
20260503172010 57 352 4.0 17.0 0.00 0.00 0.00 32 1017.6
20260503171513 57 241 4.0 13.0 0.00 0.00 0.00 34 1017.7
20260503171006 57 263 6.0 16.0 0.00 0.00 0.00 33 1017.6
20260503170510 56 215 5.0 16.0 0.00 0.00 0.00 33 1017.8